Home > Weather > Grudziądz > Past weeks

Flag for Poland Past Weather in Grudziądz, Poland — Yesterday and Last 2 Weeks

Now
63 °F

Overcast.


Feels Like: 63 °F
Forecast: 58 / 76 °F
Wind: 1 mph from West

Location: Torun

Current Time: Jun 28, 2016 at 8:11:13 AM

Latest Report: Jun 28, 2016 at 7:00 AM


Visibility: 14 mi

Pressure: 30.02 "Hg

Humidity: 81%

Dew Point: 57 °F

Location of GrudziądzLocation

Past Weather in Grudziądz — Graph

°F

Grudziądz Temperature Yesterday

Maximum temperature yesterday: 76 °F (at 1:00 PM)
Minimum temperature yesterday: 55 °F (at 4:00 AM)
Average temperature yesterday: 67 °F

High & Low Weather Summary for the Past Weeks

 TemperatureHumidityPressure
High94 °F (Jun 25, 4:00 PM)97% (Jun 21, 2:00 AM)30.32 "Hg (Jun 21, 2:00 AM)
Low50 °F (Jun 19, 4:00 AM)29% (Jun 13, 1:00 PM)29.35 "Hg (Jun 17, 11:00 AM)
Average68 °F65%29.92 "Hg
* Reported Jun 13 6:00 AM — Jun 28 6:00 AM, Grudziądz, Weather by CustomWeather, © 2016

Note: Actual official high and low records may vary slightly from our data, if they occured in-between our weather recording intervals... More about our weather records

Advertising

Grudziądz Weather History for the Previous 24 Hours

Scroll right to see more
 ConditionsComfort  
Time TempWeatherWind HumidityBarometerVisibility
6:00 AM
Tue, Jun 28
62 °FOvercast.1 mph82%30.02 "Hg10 mi
5:00 AM61 °FOvercast.1 mph84%30.01 "Hg7 mi
4:00 AM61 °FOvercast.1 mph81%30.01 "Hg15 mi
3:00 AM61 °FOvercast.1 mph77%30.01 "Hg22 mi
2:00 AM64 °FOvercast.1 mph70%30.02 "Hg28 mi
1:00 AM64 °FOvercast.1 mph69%30.02 "Hg31 mi
12:00 AM65 °FOvercast.1 mph68%30.01 "Hg31 mi
11:00 PM
Mon, Jun 27
65 °FOvercast.1 mph69%30.01 "Hg28 mi
10:00 PM67 °FSprinkles. Overcast.1 mph63%30.01 "Hg28 mi
9:00 PM70 °FOvercast.1 mph54%30.01 "Hg31 mi
8:00 PM71 °FOvercast.2 mph49%30.01 "Hg31 mi
7:00 PM73 °FOvercast.2 mph42%30.00 "Hg28 mi
6:00 PM74 °FOvercast.2 mph39%30.00 "Hg28 mi
5:00 PM75 °FOvercast.2 mph38%29.99 "Hg28 mi
4:00 PM75 °FOvercast.3 mph30%30.00 "Hg28 mi
3:00 PM75 °FPartly sunny.2 mph31%30.01 "Hg22 mi
2:00 PM76 °FPartly sunny.2 mph35%30.02 "Hg19 mi
1:00 PM76 °FPartly sunny.2 mph36%30.02 "Hg25 mi
12:00 PM73 °FScattered clouds.2 mph39%30.03 "Hg25 mi
11:00 AM72 °FScattered clouds.3 mph47%30.03 "Hg25 mi
10:00 AM70 °FPartly sunny.2 mph51%30.04 "Hg31 mi
9:00 AM69 °FScattered clouds.1 mph64%30.03 "Hg19 mi
8:00 AM66 °FScattered clouds.1 mph74%30.04 "Hg28 mi
Weather by CustomWeather, © 2016

See weather overviewHow to use our weather pages